When you browse on this site, cookies collect data to enhance your experience and personalize the content and advertising you see.
Visit our Privacy Policy to learn more. By continuing to use the site, you agree to this use of cookies and data.
  • In Czech Republic
  • List of Countries
  • For 7 days
  • Water Temperature
  • Weather Map
  • Weather Widgets
  • user-avatar
    Login

    Hourly Weather Duesseldorf

    Today, 20 October, Sunday

    Time Temperature Precipitation Wind Pressure Humidity
    00:00 +12°C° 0 mm 1 mps 753 mmHg 90%
    01:00 +12°C° 0.2 mm 1 mps 752 mmHg 90%
    02:00 +12°C° 0.2 mm 1 mps 752 mmHg 91%
    03:00 +12°C° 0.2 mm 0 mps 752 mmHg 91%
    04:00 +13°C° 0.9 mm 1 mps 752 mmHg 92%
    05:00 +13°C° 0.9 mm 1 mps 752 mmHg 93%
    06:00 +13°C° 0.9 mm 1 mps 752 mmHg 94%
    07:00 +13°C° 0.3 mm 1 mps 753 mmHg 93%
    08:00 +13°C° 0.3 mm 2 mps 753 mmHg 91%
    09:00 +13°C° 0.3 mm 2 mps 753 mmHg 89%
    10:00 +13°C° 1.8 mm 2 mps 753 mmHg 90%
    11:00 +12°C° 1.8 mm 3 mps 753 mmHg 92%
    12:00 +12°C° 1.8 mm 3 mps 753 mmHg 93%
    13:00 +12°C° 1.4 mm 3 mps 753 mmHg 93%
    14:00 +12°C° 1.4 mm 3 mps 753 mmHg 93%
    15:00 +12°C° 1.4 mm 3 mps 754 mmHg 93%
    16:00 +12°C° 0.1 mm 3 mps 754 mmHg 93%
    17:00 +12°C° 0.1 mm 3 mps 754 mmHg 93%
    18:00 +12°C° 0.1 mm 3 mps 754 mmHg 94%
    19:00 +12°C° 0.5 mm 3 mps 754 mmHg 94%
    20:00 +13°C° 0.5 mm 2 mps 755 mmHg 95%
    21:00 +13°C° 0.5 mm 1 mps 755 mmHg 96%
    22:00 +13°C° 0.7 mm 1 mps 755 mmHg 96%
    23:00 +13°C° 0.7 mm 1 mps 755 mmHg 97%

    Tomorrow, 21 October, Monday

    Time Temperature Precipitation Wind Pressure Humidity
    00:00 +13°C° 0.7 mm 2 mps 755 mmHg 97%
    01:00 +14°C° 0.5 mm 1 mps 755 mmHg 97%
    02:00 +14°C° 0.5 mm 1 mps 755 mmHg 97%
    03:00 +14°C° 0.5 mm 1 mps 755 mmHg 97%
    04:00 +14°C° 0.8 mm 1 mps 755 mmHg 97%
    05:00 +14°C° 0.8 mm 1 mps 756 mmHg 97%
    06:00 +14°C° 0.8 mm 2 mps 756 mmHg 97%
    07:00 +15°C° 0.2 mm 2 mps 757 mmHg 91%
    08:00 +16°C° 0.2 mm 3 mps 757 mmHg 86%
    09:00 +15°C° 0.2 mm 4 mps 758 mmHg 81%
    10:00 +17°C° 0.1 mm 4 mps 758 mmHg 77%
    11:00 +17°C° 0.1 mm 4 mps 759 mmHg 73%
    12:00 +18°C° 0.1 mm 4 mps 759 mmHg 69%
    13:00 +17°C° 0 mm 4 mps 759 mmHg 69%
    14:00 +17°C° 0 mm 4 mps 759 mmHg 68%
    15:00 +17°C° 0 mm 3 mps 759 mmHg 68%
    16:00 +16°C° 0 mm 3 mps 760 mmHg 70%
    17:00 +14°C° 0 mm 3 mps 760 mmHg 71%
    18:00 +13°C° 0 mm 3 mps 761 mmHg 72%
    19:00 +13°C° 0 mm 4 mps 761 mmHg 73%
    20:00 +13°C° 0 mm 4 mps 761 mmHg 74%
    21:00 +12°C° 0 mm 4 mps 762 mmHg 75%
    22:00 +12°C° 0 mm 4 mps 762 mmHg 76%
    23:00 +12°C° 0 mm 4 mps 762 mmHg 77%

    Day after tomorrow, 22 October, Tuesday

    Time Temperature Precipitation Wind Pressure Humidity
    00:00 +11°C° 0 mm 4 mps 762 mmHg 77%
    01:00 +11°C° 0 mm 4 mps 762 mmHg 79%
    02:00 +11°C° 0 mm 4 mps 762 mmHg 81%
    03:00 +11°C° 0 mm 3 mps 763 mmHg 83%
    04:00 +11°C° 0 mm 4 mps 763 mmHg 82%
    05:00 +12°C° 0 mm 4 mps 763 mmHg 82%
    06:00 +12°C° 0 mm 4 mps 763 mmHg 82%
    07:00 +12°C° 0 mm 4 mps 764 mmHg 80%
    08:00 +13°C° 0 mm 4 mps 764 mmHg 79%
    09:00 +13°C° 0 mm 3 mps 764 mmHg 78%
    10:00 +14°C° 0 mm 3 mps 765 mmHg 75%
    11:00 +14°C° 0 mm 3 mps 765 mmHg 71%
    12:00 +16°C° 0 mm 3 mps 765 mmHg 68%
    13:00 +16°C° 0 mm 2 mps 765 mmHg 68%
    14:00 +16°C° 0 mm 2 mps 765 mmHg 68%
    15:00 +16°C° 0 mm 2 mps 764 mmHg 68%
    16:00 +15°C° 0 mm 1 mps 764 mmHg 72%
    17:00 +14°C° 0 mm 1 mps 765 mmHg 76%
    18:00 +12°C° 0 mm 1 mps 765 mmHg 81%
    19:00 +11°C° 0 mm 0 mps 765 mmHg 82%
    20:00 +11°C° 0 mm 0 mps 764 mmHg 84%
    21:00 +10°C° 0 mm 0 mps 764 mmHg 85%
    22:00 +10°C° 0 mm 0 mps 764 mmHg 86%
    23:00 +10°C° 0 mm 0 mps 764 mmHg 87%

    23 October, Wednesday

    Time Temperature Precipitation Wind Pressure Humidity
    00:00 +9°C° 0 mm 0 mps 764 mmHg 87%
    01:00 +9°C° 0 mm 0 mps 764 mmHg 88%
    02:00 +9°C° 0 mm 0 mps 763 mmHg 88%
    03:00 +9°C° 0 mm 0 mps 763 mmHg 88%
    04:00 +10°C° 0 mm 1 mps 763 mmHg 88%
    05:00 +9°C° 0 mm 1 mps 762 mmHg 88%
    06:00 +9°C° 0 mm 1 mps 762 mmHg 88%
    07:00 +11°C° 0 mm 1 mps 762 mmHg 81%
    08:00 +12°C° 0 mm 1 mps 762 mmHg 75%
    09:00 +14°C° 0 mm 1 mps 761 mmHg 69%
    10:00 +15°C° 0 mm 2 mps 761 mmHg 64%
    11:00 +16°C° 0 mm 2 mps 760 mmHg 60%
    12:00 +17°C° 0 mm 2 mps 760 mmHg 56%
    13:00 +17°C° 0 mm 2 mps 759 mmHg 59%
    14:00 +17°C° 0 mm 2 mps 759 mmHg 62%
    15:00 +18°C° 0 mm 1 mps 758 mmHg 65%
    16:00 +16°C° 0 mm 2 mps 758 mmHg 70%
    17:00 +15°C° 0 mm 2 mps 758 mmHg 74%
    18:00 +14°C° 0 mm 2 mps 757 mmHg 79%
    19:00 +13°C° 0 mm 3 mps 757 mmHg 81%
    20:00 +13°C° 0 mm 3 mps 757 mmHg 83%
    21:00 +13°C° 0 mm 3 mps 757 mmHg 85%
    22:00 +13°C° 0 mm 3 mps 757 mmHg 87%
    23:00 +13°C° 0 mm 3 mps 756 mmHg 88%

    24 October, Thursday

    Time Temperature Precipitation Wind Pressure Humidity
    00:00 +13°C° 0 mm 3 mps 756 mmHg 89%
    01:00 +13°C° 0 mm 3 mps 756 mmHg 89%
    02:00 +13°C° 0 mm 3 mps 755 mmHg 89%
    03:00 +13°C° 0 mm 3 mps 755 mmHg 89%
    04:00 +13°C° 0 mm 3 mps 755 mmHg 89%
    05:00 +12°C° 0 mm 3 mps 755 mmHg 89%
    06:00 +13°C° 0 mm 2 mps 755 mmHg 89%
    07:00 +14°C° 0 mm 2 mps 755 mmHg 85%
    08:00 +15°C° 0 mm 2 mps 755 mmHg 82%
    09:00 +16°C° 0 mm 2 mps 755 mmHg 78%
    10:00 +17°C° 0 mm 2 mps 755 mmHg 74%
    11:00 +18°C° 0 mm 2 mps 755 mmHg 70%
    12:00 +19°C° 0 mm 2 mps 755 mmHg 67%
    13:00 +19°C° 0 mm 2 mps 755 mmHg 68%
    14:00 +20°C° 0 mm 1 mps 755 mmHg 69%
    15:00 +20°C° 0 mm 1 mps 755 mmHg 71%
    16:00 +19°C° 0 mm 1 mps 755 mmHg 76%
    17:00 +18°C° 0 mm 1 mps 755 mmHg 81%
    18:00 +16°C° 0 mm 1 mps 755 mmHg 86%
    19:00 +15°C° 0 mm 1 mps 756 mmHg 87%
    20:00 +15°C° 0 mm 1 mps 756 mmHg 89%
    21:00 +15°C° 0 mm 1 mps 756 mmHg 91%
    22:00 +14°C° 0 mm 1 mps 757 mmHg 92%
    23:00 +14°C° 0 mm 2 mps 757 mmHg 93%

    25 October, Friday

    Time Temperature Precipitation Wind Pressure Humidity
    00:00 +14°C° 0 mm 2 mps 757 mmHg 95%
    01:00 +14°C° 0 mm 2 mps 758 mmHg 95%
    02:00 +14°C° 0 mm 2 mps 758 mmHg 95%
    03:00 +14°C° 0 mm 2 mps 758 mmHg 95%
    04:00 +13°C° 0 mm 2 mps 758 mmHg 95%
    05:00 +13°C° 0 mm 2 mps 759 mmHg 95%
    06:00 +13°C° 0 mm 2 mps 759 mmHg 95%
    07:00 +14°C° 0 mm 2 mps 759 mmHg 91%
    08:00 +14°C° 0 mm 1 mps 760 mmHg 87%
    09:00 +15°C° 0 mm 1 mps 760 mmHg 83%
    10:00 +16°C° 0 mm 1 mps 760 mmHg 78%
    11:00 +18°C° 0 mm 1 mps 760 mmHg 72%
    12:00 +19°C° 0 mm 1 mps 761 mmHg 66%
    13:00 +19°C° 0 mm 1 mps 761 mmHg 67%
    14:00 +19°C° 0 mm 1 mps 761 mmHg 68%
    15:00 +19°C° 0 mm 1 mps 760 mmHg 69%
    16:00 +18°C° 0 mm 1 mps 761 mmHg 73%
    17:00 +16°C° 0 mm 1 mps 761 mmHg 76%
    18:00 +15°C° 0 mm 1 mps 761 mmHg 80%
    19:00 +14°C° 0 mm 1 mps 762 mmHg 81%
    20:00 +14°C° 0 mm 1 mps 762 mmHg 83%
    21:00 +13°C° 0 mm 1 mps 762 mmHg 85%
    22:00 +13°C° 0 mm 1 mps 762 mmHg 86%
    23:00 +13°C° 0 mm 1 mps 762 mmHg 87%
    Show more